[[{"header":{"parameterUnit":"m.s-1","parameterCategory":1,"la1":30.2991,"la2":30.254,"lo1":-89.0895,"lo2":-89.0444,"dy":0.0017,"dx":0.0017,"nx":28,"ny":28,"refTime":"2023-09-15T03:00:00:Z","depth":0,"parameterNumber":2,"parameterNumberName":"U-component_of_WINDS"},"data":[0,0,0,0,0,0,0,0,0,0,0,0,0,0,0,0,0,0,0,0,0,0,0,0,0,0,0,0,0,0,0,0,0,0,0,0,0,0,0,0,0,0,0,0,0,0,0,0,0,0,0,0,0,0,0,0,0,0,2.8679,2.868,0,2.8777,2.8778,2.8779,2.8706,2.8703,2.8699,2.8696,2.8802,2.8808,2.8814,0,0,0,0,0,0,0,0,0,0,0,0,0,2.8432,2.8436,2.8678,2.868,2.8681,2.8777,2.8778,2.8779,2.8706,2.8702,2.8699,2.8695,2.88,2.8807,2.8814,0,0,0,0,0,0,0,0,0,0,0,0,0,2.8535,2.8438,2.8678,2.8656,2.8655,2.8776,2.8778,2.878,2.8707,2.8702,2.8698,2.8693,2.8798,2.8807,2.8815,2.8966,0,0,2.8842,2.8846,0,0,0,0,0,0,0,0,2.853,2.8545,2.8658,2.8658,2.8657,2.8724,2.873,2.8842,2.8708,2.8688,2.8696,2.8691,2.8781,2.879,2.882,2.897,2.8975,2.8843,2.8848,2.8852,2.8854,0,0,0,0,0,0,0,2.8522,2.854,2.8717,2.866,2.8659,2.8642,2.8652,2.8751,2.876,2.8689,2.8684,2.8696,2.8779,2.8811,2.8822,2.8977,2.8842,2.885,2.8856,2.8859,2.9253,2.9258,0,0,0,0,0,0,2.8517,2.8534,2.8714,2.872,2.858,2.8651,2.8661,2.8707,2.8759,2.8762,2.87,2.8692,2.8799,2.8811,2.8825,2.9001,2.8852,2.886,2.8865,2.9248,2.9254,2.926,0,0,0,0,0,0,2.8512,2.8534,2.871,2.8626,2.8647,2.866,2.8713,2.8712,2.8744,2.8767,2.8769,2.8731,2.8795,2.8813,2.893,2.9004,2.8864,2.8872,2.9242,2.925,2.9257,2.9358,0,0,0,0,0,0,2.8505,2.8532,2.8588,2.8628,2.8652,2.8813,2.8717,2.8717,2.8758,2.8749,2.8796,2.88,2.8793,2.8917,2.8939,2.9014,2.8878,2.9235,2.9246,2.9255,2.9348,2.9368,2.9385,0,0,0,0,0,2.8496,2.8614,2.8592,2.8614,2.8722,2.8817,2.8831,2.882,2.8765,2.8821,2.8836,2.8798,2.8993,2.893,2.8954,2.9032,2.923,2.9243,2.9254,2.9339,2.9364,2.9385,0,0,0,0,0,0,2.8585,2.8619,2.8594,2.8728,2.877,2.8805,2.8876,2.8847,2.8906,2.8895,2.888,2.8892,2.9014,2.9036,2.8964,2.9179,2.9103,2.912,2.916,2.9184,2.9202,2.9193,2.8886,0,0,0,0,0,2.862,2.8693,2.872,2.8835,2.8857,2.8864,2.8905,2.8892,2.8935,2.8953,2.8977,2.9022,2.9093,2.914,2.9207,2.9352,2.936,2.9417,2.9436,2.9451,2.9465,2.9541,2.9566,2.9299,2.9299,2.9299,0,0,2.8694,2.8721,2.8769,2.8854,2.8885,2.8961,2.8879,2.8964,2.902,2.8967,2.9077,2.9097,2.9146,2.9276,2.9335,2.9298,2.9541,2.9466,2.9478,2.9484,2.9555,2.9581,2.9603,2.9307,2.9305,2.9304,0,0,2.8865,2.8895,2.8992,2.9025,2.9072,2.9075,2.9099,2.9138,2.9147,2.9258,2.9219,2.9287,2.9411,2.9446,2.9481,2.9666,2.9632,2.9689,2.9786,2.9859,2.988,2.9899,2.9962,2.9985,2.9703,2.9704,2.9704,0,2.895,2.9062,2.9047,2.9134,2.9172,2.9126,2.9225,2.9258,2.9325,2.9353,2.931,2.9462,2.9493,2.963,2.9675,2.9706,2.9731,2.9682,2.9878,2.9897,2.9914,2.9974,2.9998,2.971,2.9709,2.9709,2.9708,0,2.9163,2.9242,2.9316,2.9379,2.9426,2.9519,2.9519,2.9569,2.9552,2.956,2.9673,2.9708,2.978,2.9812,2.9799,2.9948,2.9922,2.988,2.9803,2.9946,3.0002,3.0025,2.9719,2.9717,2.9715,2.9713,0,0,2.9392,2.9445,2.9472,2.9499,2.9548,2.9609,2.97,2.9768,2.981,2.986,2.9934,3.004,2.9999,3.0039,3.0029,3.0094,3.0235,3.0043,3.0044,3.0075,3.0398,3.0427,3.0454,3.0214,3.0218,3.0222,3.0393,0,2.9563,2.9718,2.9707,2.9855,2.9926,2.9883,2.9962,3.0001,3.0012,3.0074,3.0087,3.016,3.0103,3.0126,3.0189,3.0204,3.0299,3.0192,3.0283,3.0286,3.0268,3.0484,3.0516,3.0675,3.0415,3.0419,3.0421,0,2.9783,2.9836,2.9989,3.0025,3.0055,3.0126,3.0187,3.0248,3.0292,3.0294,3.0338,3.0317,3.0409,3.0332,3.0458,3.0386,3.0423,3.0436,3.0442,3.0447,3.036,3.0492,3.0726,3.0748,3.0456,3.0454,3.0451,0,2.9929,3.0041,3.0146,3.0171,3.0217,3.0267,3.0289,3.0328,3.0369,3.0424,3.045,3.0516,3.0551,3.0602,3.06,3.0544,3.0727,3.0651,3.0731,3.0731,3.0769,3.0766,3.1009,3.0799,3.0799,3.0798,3.0798,0,3.0119,3.0214,3.0212,3.0276,3.0381,3.0369,3.0474,3.049,3.0525,3.0592,3.0562,3.0626,3.062,3.0685,3.0684,3.0787,3.0805,3.0809,3.0807,3.081,3.0809,3.0832,3.0819,3.0805,3.0803,3.0802,3.0801,0,3.03,3.0302,3.0413,3.0447,3.0458,3.0534,3.0563,3.0624,3.0632,3.0718,3.0737,3.075,3.0825,3.0828,3.0916,3.0915,3.1039,3.1027,3.1024,3.102,3.1099,3.1091,3.1362,3.1396,3.1168,3.117,3.1172,0,3.0419,3.049,3.0531,3.0573,3.0597,3.0666,3.0707,3.0699,3.0743,3.0797,3.0852,3.0924,3.098,3.1102,3.112,3.1186,3.1173,3.1264,3.1183,3.1182,3.117,3.1164,3.117,3.1278,3.1281,3.1283,3.1285,0,3.0629,3.0626,3.0686,3.0747,3.0796,3.0844,3.0888,3.0925,3.0921,3.0973,3.1048,3.1092,3.1179,3.125,3.1315,3.1338,3.1311,3.131,3.1332,3.1334,3.1327,3.1328,3.1063,3.1303,3.1301,3.13,3.1299,3.1298,3.078,3.084,3.0878,3.0945,3.0978,3.1019,3.1077,3.1092,3.1154,3.1222,3.1215,3.1298,3.1339,3.1422,3.1451,3.1516,3.1485,3.1517,3.1525,3.1532,3.1539,3.132,3.1529,3.1528,3.1528,3.1527,3.1527,0,3.0986,3.1007,3.107,3.1131,3.1184,3.1153,3.1201,3.1247,3.132,3.136,3.1415,3.1501,3.157,3.1593,3.166,3.1707,3.1696,3.1725,3.172,3.1725,3.1565,3.1537,3.1732,3.1732,3.1732,3.1732,3.1732,3.1732,3.1098,3.1198,3.12,3.1316,3.1337,3.1417,3.1446,3.1484,3.1516,3.1612,3.1668,3.1682,3.1716,3.1784,3.1846,3.1851,3.1876,3.1909,3.1909,3.1758,3.1737,3.1717,3.1691,3.1915,3.1916,3.2063,3.2065,3.2066]},{"header":{"parameterUnit":"m.s-1","parameterCategory":1,"la1":30.2991,"la2":30.254,"lo1":-89.0895,"lo2":-89.0444,"dy":0.0017,"dx":0.0017,"nx":28,"ny":28,"refTime":"2023-09-15T03:00:00:Z","depth":0,"parameterNumber":3,"parameterNumberName":"V-component_of_WINDS"},"data":[0,0,0,0,0,0,0,0,0,0,0,0,0,0,0,0,0,0,0,0,0,0,0,0,0,0,0,0,0,0,0,0,0,0,0,0,0,0,0,0,0,0,0,0,0,0,0,0,0,0,0,0,0,0,0,0,0,0,3.4854,3.4854,0,3.4781,3.478,3.478,3.4655,3.4653,3.4651,3.4648,3.4576,3.4576,3.4576,0,0,0,0,0,0,0,0,0,0,0,0,0,3.4889,3.4889,3.4854,3.4854,3.4853,3.4781,3.478,3.4779,3.4656,3.4653,3.465,3.4647,3.4576,3.4576,3.4576,0,0,0,0,0,0,0,0,0,0,0,0,0,3.4851,3.4889,3.4855,3.4782,3.4775,3.4782,3.478,3.4779,3.4656,3.4653,3.4649,3.4646,3.4576,3.4576,3.4576,3.4648,0,0,3.4578,3.4578,0,0,0,0,0,0,0,0,3.4854,3.485,3.4794,3.4787,3.4779,3.4724,3.4766,3.4735,3.4657,3.4701,3.4648,3.4644,3.4628,3.4624,3.4618,3.4645,3.4642,3.4578,3.4578,3.4578,3.4578,0,0,0,0,0,0,0,3.4856,3.4853,3.4825,3.4793,3.4784,3.4754,3.4745,3.476,3.4685,3.4697,3.4688,3.4681,3.4623,3.4618,3.4615,3.4641,3.4578,3.4578,3.4578,3.4578,3.4723,3.4726,0,0,0,0,0,0,3.4869,3.4856,3.4828,3.4823,3.4808,3.4756,3.4746,3.4745,3.4685,3.4672,3.4684,3.4675,3.4619,3.4615,3.4612,3.4692,3.4578,3.4578,3.4578,3.4719,3.4724,3.4728,0,0,0,0,0,0,3.4871,3.4868,3.4831,3.4837,3.483,3.476,3.476,3.4746,3.474,3.4675,3.4661,3.4692,3.4616,3.4612,3.464,3.4687,3.4578,3.4579,3.4715,3.4721,3.4726,3.4852,0,0,0,0,0,0,3.4872,3.4869,3.4895,3.4838,3.483,3.486,3.4762,3.4747,3.474,3.4728,3.4678,3.4667,3.4613,3.464,3.4641,3.4686,3.4579,3.471,3.4718,3.4724,3.4843,3.4861,3.4877,0,0,0,0,0,3.4874,3.4934,3.4897,3.4895,3.4861,3.4862,3.4858,3.4794,3.4745,3.4771,3.4729,3.4668,3.4683,3.4644,3.4643,3.469,3.4707,3.4716,3.4723,3.4836,3.4858,3.4876,0,0,0,0,0,0,3.4999,3.4926,3.4883,3.4927,3.4902,3.4841,3.4872,3.4819,3.4808,3.4797,3.4719,3.4709,3.4747,3.4721,3.468,3.4756,3.4685,3.4694,3.4771,3.4791,3.4808,3.4813,3.4579,0,0,0,0,0,3.5032,3.5039,3.4974,3.5019,3.5008,3.4943,3.4941,3.4894,3.4865,3.4854,3.4814,3.4789,3.4787,3.4788,3.4783,3.484,3.4827,3.4871,3.4888,3.4902,3.491,3.4937,3.4956,3.4755,3.4754,3.4754,0,0,3.51,3.506,3.5069,3.5043,3.5018,3.5027,3.4935,3.4948,3.4954,3.4856,3.488,3.485,3.4817,3.486,3.4876,3.4839,3.4963,3.4912,3.4924,3.4924,3.4947,3.4966,3.4983,3.476,3.4759,3.4758,0,0,3.5227,3.5198,3.5232,3.5209,3.5172,3.5128,3.5136,3.5084,3.506,3.5083,3.5009,3.5016,3.5015,3.4994,3.4984,3.5105,3.5048,3.5105,3.5191,3.5219,3.5235,3.5248,3.5291,3.5307,3.5114,3.5114,3.5114,0,3.5316,3.5326,3.5257,3.5274,3.5265,3.5177,3.5211,3.5192,3.5156,3.5152,3.5111,3.5108,3.5079,3.5115,3.5145,3.514,3.5147,3.511,3.5238,3.5251,3.5263,3.5302,3.5319,3.5121,3.512,3.512,3.5119,0,3.5437,3.5445,3.5477,3.5443,3.5438,3.5464,3.5399,3.5403,3.5357,3.5318,3.5342,3.5305,3.5291,3.5296,3.5252,3.5326,3.5304,3.5252,3.5179,3.529,3.5326,3.5341,3.5131,3.5129,3.5127,3.5125,0,0,3.5639,3.5567,3.558,3.5564,3.5517,3.5522,3.5545,3.5531,3.5535,3.5513,3.553,3.5532,3.5483,3.5472,3.5424,3.5449,3.5546,3.5393,3.5391,3.5422,3.5625,3.5664,3.5682,3.5509,3.5512,3.5514,3.5628,0,3.5756,3.5789,3.5728,3.5776,3.5783,3.5699,3.5719,3.5693,3.5658,3.5659,3.562,3.5622,3.5558,3.555,3.5571,3.553,3.5586,3.5521,3.5524,3.5525,3.5534,3.5701,3.5742,3.5851,3.5641,3.5644,3.5645,0,3.5896,3.588,3.5929,3.5879,3.588,3.5899,3.588,3.5883,3.5852,3.5824,3.5812,3.5756,3.5775,3.5706,3.5732,3.5689,3.5687,3.5668,3.567,3.5667,3.5591,3.5702,3.5884,3.59,3.5667,3.5665,3.5663,0,3.6037,3.6029,3.6057,3.6046,3.5989,3.6004,3.5981,3.5947,3.5942,3.5927,3.5923,3.5911,3.5904,3.5897,3.5839,3.5794,3.5872,3.5798,3.5849,3.5851,3.5868,3.5867,3.6052,3.5869,3.5869,3.5869,3.5868,0,3.6173,3.6206,3.612,3.6137,3.6172,3.6102,3.6138,3.6107,3.6078,3.6088,3.6016,3.6027,3.5951,3.5954,3.591,3.5937,3.5935,3.5913,3.5901,3.5919,3.5922,3.5916,3.5906,3.5873,3.5872,3.5871,3.587,0,3.6336,3.628,3.6304,3.6249,3.6236,3.6264,3.6216,3.623,3.6191,3.6204,3.6203,3.6142,3.6141,3.6084,3.6072,3.6042,3.6089,3.6063,3.6099,3.609,3.6144,3.614,3.633,3.6351,3.6157,3.6159,3.616,0,3.6425,3.6448,3.6395,3.6396,3.6377,3.638,3.6375,3.6308,3.6306,3.6273,3.6291,3.6285,3.6276,3.6281,3.6235,3.6226,3.6199,3.6266,3.6197,3.6214,3.6198,3.6197,3.6199,3.628,3.6283,3.6285,3.6286,0,3.6589,3.6561,3.6555,3.6541,3.6537,3.6523,3.6504,3.651,3.6436,3.6438,3.6436,3.643,3.6418,3.6413,3.6396,3.6373,3.6318,3.6309,3.632,3.6338,3.6357,3.6347,3.6137,3.6304,3.6303,3.6301,3.63,3.63,3.6717,3.6733,3.6699,3.6696,3.6675,3.6659,3.6669,3.6631,3.6629,3.6614,3.6575,3.658,3.6549,3.652,3.6502,3.6506,3.6472,3.6488,3.6492,3.6497,3.6507,3.6358,3.6502,3.6502,3.6501,3.6501,3.65,0,3.6876,3.685,3.6848,3.6824,3.6822,3.6771,3.6748,3.6749,3.6755,3.6731,3.6724,3.6723,3.6718,3.6673,3.6663,3.6674,3.6649,3.6674,3.6671,3.6667,3.6538,3.6529,3.6694,3.6694,3.6694,3.6694,3.6694,3.6694,3.6958,3.6984,3.6952,3.6966,3.694,3.6944,3.6935,3.6921,3.6901,3.6903,3.6899,3.6869,3.6836,3.6824,3.6817,3.6804,3.6803,3.6836,3.6815,3.6695,3.6676,3.6658,3.6649,3.6837,3.6837,3.6943,3.6944,3.6945]}]]